Вернуться в каталог

FENGYUN 1C DEB

АктивенSSO
NORAD 36260·DEBRIS·🇨🇳 China

Запущен May 10, 1999 с Taiyuan Satellite Launch Center

Loading…

Ближайшие Пролёты (ближайшие 24 часа)

TLE

СвежийSource: Space-Track

Эпоха: Sep 14, 2026, 11:16 UTC

1 36260U 99025DWM 26257.46974986  .00000159  00000-0  10316-3 0  9996
2 36260  98.6695 256.9305 0015980 176.8924 183.2353 14.15540928917092

Отслеживайте FENGYUN 1C DEB в реальном времени с AllMySat

Download on the App Store